Starlink 32474

operational
NORAD ID: 61260 Int'l Des: 2024-175 Owner: SPXS Country: US Constellation: starlink
LEOCIRCULAR

Über Starlink 32474

Beschreibung wird geladen...

Live-Position

3D-Globus wird geladen...

Nächste Überflüge

Höhenverlauf

Altitude vs Time

uPlot chart will show altitude changes over time

Zweizeiliger Elementsatz

1 61260U 24175T 25351.90967740 .00001482 00000-0 62201-4 0 9992
2 61260 53.1595 213.8311 0001703 102.0767 258.0425 15.30185199 68932
Epoch: 17. Dez. 2025 • Age: 27 hours

Aktueller Status

Höhe 483.0 km
Geschwindigkeit 7.62 km/s
Subsatellitenpunkt -23.92°S, 96.3°E
Startdatum 25. Sept. 2024
Alter 1.2 years
Typ internet

Technische Details

Klassifizierung Payload
Masse 730.00 kg
Trockenmasse 700.00 kg
Gesamtmasse 730.00 kg
Länge 0.30 m
Durchmesser 4.10 m
Spannweite 29.00 m
Form Box + pan
Hersteller SPXS
Bus-Typ Starlink V2M
Phasenstatus In Orbit
Besitzer/Staat SPXS/US

Große Konstellationen

Loading constellations...